Location: Melbourne
(37.8170°S, 144.9670°E)
Time: 18:01:43
(UTC+11:00)

ADEOS Rocket - Visible Passes

Search period start: 24 October 2014 00:00
Search period end: 03 November 2014 00:00
Orbit: 860 x 1307 km, 98.7° (Epoch: 24 October)

Date Brightness Start Highest point End Pass type
(mag) Time Alt. Az. Time Alt. Az. Time Alt. Az.
24 Oct 4.9 00:03:41 10° SSW 00:08:27 24° WSW 00:09:23 23° WSW visible
24 Oct 4.4 21:29:21 10° SE 21:33:07 22° E 21:33:07 22° E visible
24 Oct 3.6 23:13:50 10° S 23:19:54 56° WSW 23:20:06 56° W visible
25 Oct 3.2 22:24:49 10° SSE 22:30:48 63° E 22:30:48 63° E visible
26 Oct 5.1 00:11:41 10° SSW 00:16:10 21° WSW 00:17:47 19° W visible
26 Oct 4.2 21:36:45 10° SE 21:41:31 27° E 21:41:31 27° E visible
26 Oct 3.9 23:21:39 10° S 23:27:41 49° WSW 23:28:30 46° W visible
27 Oct 3.1 22:32:31 10° SSE 22:38:56 75° ENE 22:39:12 74° NE visible
28 Oct 5.3 00:19:45 10° SSW 00:23:53 18° WSW 00:26:11 15° W visible
28 Oct 3.9 21:44:13 10° SE 21:49:55 32° E 21:49:55 32° E visible
28 Oct 4.2 23:29:29 10° S 23:35:27 42° WSW 23:36:54 38° W visible
29 Oct 4.9 20:58:03 10° ESE 21:00:39 13° E 21:00:39 13° E visible
29 Oct 3.1 22:40:14 10° SSE 22:46:45 86° ENE 22:47:37 71° N visible
30 Oct 5.5 00:27:53 10° SSW 00:31:34 16° WSW 00:34:36 12° W visible
30 Oct 3.8 21:51:45 10° SSE 21:57:51 38° E 21:58:20 37° ENE visible
30 Oct 4.4 23:37:22 10° S 23:43:13 37° WSW 23:45:19 31° WNW visible
31 Oct 4.7 21:04:50 10° ESE 21:08:40 16° E 21:09:04 16° E visible
31 Oct 3.3 22:47:58 10° SSE 22:54:35 83° WSW 22:56:02 60° NNW visible
01 Nov 5.6 00:36:09 10° SSW 00:39:15 14° WSW 00:42:30 10° W visible
01 Nov 3.6 21:59:21 10° SSE 22:05:43 45° E 22:06:46 42° ENE visible
01 Nov 4.6 23:45:16 10° S 23:50:59 32° WSW 23:53:45 25° WNW visible
02 Nov 4.6 21:11:57 10° SE 21:16:35 19° E 21:17:29 19° ENE visible
02 Nov 3.4 22:55:45 10° S 23:02:24 72° WSW 23:04:28 49° NW visible
